Retour au catalogue

STARLINK-31810

ActifCommunicationsVLEO
NORAD 59799·PAYLOAD·🇺🇸 United States

Lancé May 18, 2024 depuis Cape Canaveral Space Force Station

Loading…

Prochains Passages (prochaines 24 heures)

TLE

FraisSource: CelesTrak SupGP

Époque: Sep 14, 2026, 21:34 UTC

1 59799C 24093T   26257.89909722  .00027131  00000+0  98268-3 0  2571
2 59799  42.9995 220.5280 0001231 260.1333 339.7546 15.27565698    15

Suivez STARLINK-31810 en temps réel avec AllMySat

Download on the App Store